Year,Month,Day,Hour,Minute,Value (Times are PST for temperature in C)
2014,09,15,00,00,12.20
2014,09,15,00,01,12.20
2014,09,15,00,02,12.20
2014,09,15,00,03,12.10
2014,09,15,00,04,12.10
2014,09,15,00,05,12.10
2014,09,15,00,06,12.10
2014,09,15,00,07,12.00
2014,09,15,00,08,12.00
2014,09,15,00,09,12.00
2014,09,15,00,10,11.90
2014,09,15,00,11,11.90
2014,09,15,00,12,11.90
2014,09,15,00,13,11.80
2014,09,15,00,14,11.80
2014,09,15,00,15,11.80
2014,09,15,00,16,11.80
2014,09,15,00,17,11.80
2014,09,15,00,18,11.80
2014,09,15,00,19,11.80
2014,09,15,00,20,11.70
2014,09,15,00,21,11.70
2014,09,15,00,22,11.70
2014,09,15,00,23,11.70
2014,09,15,00,24,11.70
2014,09,15,00,25,11.60
2014,09,15,00,26,11.60
2014,09,15,00,27,11.60
2014,09,15,00,28,11.60
2014,09,15,00,29,11.60
2014,09,15,00,30,11.60
2014,09,15,00,31,11.60
2014,09,15,00,32,11.60
2014,09,15,00,33,11.50
2014,09,15,00,34,11.50
2014,09,15,00,35,11.50
2014,09,15,00,36,11.40
2014,09,15,00,37,11.40
2014,09,15,00,38,11.40
2014,09,15,00,39,11.40
2014,09,15,00,40,11.40
2014,09,15,00,41,11.40
2014,09,15,00,42,11.30
2014,09,15,00,43,11.30
2014,09,15,00,44,11.30
2014,09,15,00,45,11.30
2014,09,15,00,46,11.30
2014,09,15,00,47,11.30
2014,09,15,00,48,11.30
2014,09,15,00,49,11.20
2014,09,15,00,50,11.20
2014,09,15,00,51,11.20
2014,09,15,00,52,11.20
2014,09,15,00,53,11.20
2014,09,15,00,54,11.20
2014,09,15,00,55,11.20
2014,09,15,00,56,11.20
2014,09,15,00,57,11.10
2014,09,15,00,58,11.10
2014,09,15,00,59,11.10
2014,09,15,01,00,11.10
2014,09,15,01,01,11.00
2014,09,15,01,02,11.00
2014,09,15,01,03,10.90
2014,09,15,01,04,10.90
2014,09,15,01,05,10.90
2014,09,15,01,06,10.80
2014,09,15,01,07,10.80
2014,09,15,01,08,10.80
2014,09,15,01,09,10.80
2014,09,15,01,10,10.80
2014,09,15,01,11,10.80
2014,09,15,01,12,10.70
2014,09,15,01,13,10.70
2014,09,15,01,14,10.70
2014,09,15,01,15,10.70
2014,09,15,01,16,10.70
2014,09,15,01,17,10.70
2014,09,15,01,18,10.70
2014,09,15,01,19,10.70
2014,09,15,01,20,10.70
2014,09,15,01,21,10.70
2014,09,15,01,22,10.70
2014,09,15,01,23,10.70
2014,09,15,01,24,10.70
2014,09,15,01,25,10.70
2014,09,15,01,26,10.70
2014,09,15,01,27,10.70
2014,09,15,01,28,10.70
2014,09,15,01,29,10.80
2014,09,15,01,30,10.80
2014,09,15,01,31,10.80
2014,09,15,01,32,10.80
2014,09,15,01,33,10.80
2014,09,15,01,34,10.80
2014,09,15,01,35,10.80
2014,09,15,01,36,10.80
2014,09,15,01,37,10.80
2014,09,15,01,38,10.80
2014,09,15,01,39,10.80
2014,09,15,01,40,10.80
2014,09,15,01,41,10.80
2014,09,15,01,42,10.80
2014,09,15,01,43,10.80
2014,09,15,01,44,10.80
2014,09,15,01,45,10.80
2014,09,15,01,46,10.80
2014,09,15,01,47,10.70
2014,09,15,01,48,10.70
2014,09,15,01,49,10.70
2014,09,15,01,50,10.70
2014,09,15,01,51,10.70
2014,09,15,01,52,10.70
2014,09,15,01,53,10.70
2014,09,15,01,54,10.70
2014,09,15,01,55,10.70
2014,09,15,01,56,10.70
2014,09,15,01,57,10.70
2014,09,15,01,58,10.60
2014,09,15,01,59,10.60
2014,09,15,02,00,10.60
2014,09,15,02,01,10.60
2014,09,15,02,02,10.60
2014,09,15,02,03,10.60
2014,09,15,02,04,10.60
2014,09,15,02,05,10.50
2014,09,15,02,06,10.50
2014,09,15,02,07,10.50
2014,09,15,02,08,10.40
2014,09,15,02,09,10.40
2014,09,15,02,10,10.40
2014,09,15,02,11,10.40
2014,09,15,02,12,10.40
2014,09,15,02,13,10.40
2014,09,15,02,14,10.30
2014,09,15,02,15,10.30
2014,09,15,02,16,10.30
2014,09,15,02,17,10.30
2014,09,15,02,18,10.30
2014,09,15,02,19,10.20
2014,09,15,02,20,10.20
2014,09,15,02,21,10.20
2014,09,15,02,22,10.20
2014,09,15,02,23,10.20
2014,09,15,02,24,10.20
2014,09,15,02,25,10.20
2014,09,15,02,26,10.10
2014,09,15,02,27,10.10
2014,09,15,02,28,10.10
2014,09,15,02,29,10.10
2014,09,15,02,30,10.10
2014,09,15,02,31,10.10
2014,09,15,02,32,10.10
2014,09,15,02,33,10.10
2014,09,15,02,34,10.10
2014,09,15,02,35,10.10
2014,09,15,02,36,10.10
2014,09,15,02,37,10.10
2014,09,15,02,38,10.20
2014,09,15,02,39,10.20
2014,09,15,02,40,10.10
2014,09,15,02,41,10.10
2014,09,15,02,42,10.10
2014,09,15,02,43,10.10
2014,09,15,02,44,10.10
2014,09,15,02,45,10.10
2014,09,15,02,46,10.10
2014,09,15,02,47,10.10
2014,09,15,02,48,10.10
2014,09,15,02,49,10.10
2014,09,15,02,50,10.10
2014,09,15,02,51,10.10
2014,09,15,02,52,10.10
2014,09,15,02,53,10.00
2014,09,15,02,54,10.00
2014,09,15,02,55,10.00
2014,09,15,02,56,10.00
2014,09,15,02,57,10.00
2014,09,15,02,58,10.00
2014,09,15,02,59,9.90
2014,09,15,03,00,9.90
2014,09,15,03,01,9.90
2014,09,15,03,02,9.90
2014,09,15,03,06,9.90
2014,09,15,03,07,9.90
2014,09,15,03,08,9.90
2014,09,15,03,09,9.90
2014,09,15,03,10,9.90
2014,09,15,03,11,9.90
2014,09,15,03,12,9.90
2014,09,15,03,13,9.90
2014,09,15,03,14,9.90
2014,09,15,03,15,9.90
2014,09,15,03,16,9.90
2014,09,15,03,17,9.90
2014,09,15,03,18,9.90
2014,09,15,03,19,9.90
2014,09,15,03,20,9.80
2014,09,15,03,21,9.80
2014,09,15,03,22,9.80
2014,09,15,03,23,9.80
2014,09,15,03,24,9.80
2014,09,15,03,25,9.80
2014,09,15,03,26,9.80
2014,09,15,03,27,9.80
2014,09,15,03,28,9.80
2014,09,15,03,29,9.80
2014,09,15,03,30,9.80
2014,09,15,03,31,9.80
2014,09,15,03,32,9.80
2014,09,15,03,33,9.70
2014,09,15,03,34,9.70
2014,09,15,03,35,9.70
2014,09,15,03,36,9.70
2014,09,15,03,37,9.70
2014,09,15,03,38,9.70
2014,09,15,03,39,9.70
2014,09,15,03,40,9.70
2014,09,15,03,41,9.70
2014,09,15,03,42,9.70
2014,09,15,03,43,9.70
2014,09,15,03,44,9.70
2014,09,15,03,45,9.70
2014,09,15,03,46,9.70
2014,09,15,03,47,9.70
2014,09,15,03,48,9.70
2014,09,15,03,49,9.70
2014,09,15,03,50,9.60
2014,09,15,03,51,9.60
2014,09,15,03,52,9.60
2014,09,15,03,53,9.60
2014,09,15,03,54,9.60
2014,09,15,03,55,9.60
2014,09,15,03,56,9.60
2014,09,15,03,57,9.60
2014,09,15,03,58,9.60
2014,09,15,03,59,9.60
2014,09,15,04,00,9.60
2014,09,15,04,01,9.60
2014,09,15,04,02,9.60
2014,09,15,04,03,9.60
2014,09,15,04,04,9.60
2014,09,15,04,05,9.60
2014,09,15,04,06,9.60
2014,09,15,04,07,9.60
2014,09,15,04,08,9.60
2014,09,15,04,09,9.60
2014,09,15,04,10,9.60
2014,09,15,04,11,9.60
2014,09,15,04,12,9.60
2014,09,15,04,13,9.60
2014,09,15,04,14,9.60
2014,09,15,04,15,9.60
2014,09,15,04,16,9.60
2014,09,15,04,17,9.50
2014,09,15,04,18,9.50
2014,09,15,04,19,9.50
2014,09,15,04,20,9.40
2014,09,15,04,21,9.40
2014,09,15,04,22,9.40
2014,09,15,04,23,9.40
2014,09,15,04,24,9.30
2014,09,15,04,25,9.30
2014,09,15,04,26,9.30
2014,09,15,04,27,9.30
2014,09,15,04,28,9.30
2014,09,15,04,29,9.30
2014,09,15,04,30,9.20
2014,09,15,04,31,9.20
2014,09,15,04,32,9.20
2014,09,15,04,33,9.20
2014,09,15,04,34,9.20
2014,09,15,04,35,9.20
2014,09,15,04,36,9.20
2014,09,15,04,37,9.20
2014,09,15,04,38,9.20
2014,09,15,04,39,9.20
2014,09,15,04,40,9.20
2014,09,15,04,41,9.20
2014,09,15,04,42,9.20
2014,09,15,04,43,9.20
2014,09,15,04,44,9.20
2014,09,15,04,45,9.20
2014,09,15,04,46,9.20
2014,09,15,04,47,9.10
2014,09,15,04,48,9.10
2014,09,15,04,49,9.10
2014,09,15,04,50,9.10
2014,09,15,04,51,9.10
2014,09,15,04,52,9.10
2014,09,15,04,53,9.10
2014,09,15,04,54,9.10
2014,09,15,04,55,9.10
2014,09,15,04,56,9.10
2014,09,15,04,57,9.10
2014,09,15,04,58,9.10
2014,09,15,04,59,9.10
2014,09,15,05,00,9.10
2014,09,15,05,01,9.10
2014,09,15,05,02,9.10
2014,09,15,05,03,9.10
2014,09,15,05,04,9.10
2014,09,15,05,05,9.10
2014,09,15,05,06,9.10
2014,09,15,05,07,9.10
2014,09,15,05,08,9.10
2014,09,15,05,09,9.00
2014,09,15,05,10,9.00
2014,09,15,05,11,9.00
2014,09,15,05,12,9.00
2014,09,15,05,13,9.00
2014,09,15,05,14,9.00
2014,09,15,05,15,9.00
2014,09,15,05,16,8.90
2014,09,15,05,17,8.90
2014,09,15,05,18,8.90
2014,09,15,05,19,8.90
2014,09,15,05,20,8.90
2014,09,15,05,21,8.90
2014,09,15,05,22,8.90
2014,09,15,05,23,8.90
2014,09,15,05,24,8.90
2014,09,15,05,25,8.90
2014,09,15,05,26,8.90
2014,09,15,05,27,8.90
2014,09,15,05,28,8.90
2014,09,15,05,29,8.90
2014,09,15,05,30,8.90
2014,09,15,05,31,8.90
2014,09,15,05,32,8.90
2014,09,15,05,33,8.90
2014,09,15,05,34,8.90
2014,09,15,05,35,8.90
2014,09,15,05,36,8.90
2014,09,15,05,37,8.90
2014,09,15,05,38,8.90
2014,09,15,05,39,8.90
2014,09,15,05,40,8.90
2014,09,15,05,41,8.90
2014,09,15,05,42,8.90
2014,09,15,05,43,8.90
2014,09,15,05,44,8.90
2014,09,15,05,45,8.90
2014,09,15,05,46,8.90
2014,09,15,05,47,8.90
2014,09,15,05,48,8.90
2014,09,15,05,49,8.90
2014,09,15,05,50,9.00
2014,09,15,05,51,9.00
2014,09,15,05,52,9.00
2014,09,15,05,53,9.00
2014,09,15,05,54,9.00
2014,09,15,05,55,8.90
2014,09,15,05,56,8.90
2014,09,15,05,57,8.90
2014,09,15,05,58,8.90
2014,09,15,05,59,8.90
2014,09,15,06,00,8.90
2014,09,15,06,01,8.90
2014,09,15,06,02,8.90
2014,09,15,06,03,8.90
2014,09,15,06,04,8.80
2014,09,15,06,05,8.80
2014,09,15,06,06,8.80
2014,09,15,06,07,8.80
2014,09,15,06,08,8.80
2014,09,15,06,09,8.80
2014,09,15,06,10,8.70
2014,09,15,06,11,8.70
2014,09,15,06,12,8.70
2014,09,15,06,13,8.70
2014,09,15,06,14,8.70
2014,09,15,06,15,8.70
2014,09,15,06,16,8.60
2014,09,15,06,17,8.60
2014,09,15,06,18,8.60
2014,09,15,06,19,8.60
2014,09,15,06,20,8.60
2014,09,15,06,21,8.50
2014,09,15,06,22,8.50
2014,09,15,06,23,8.50
2014,09,15,06,24,8.50
2014,09,15,06,25,8.50
2014,09,15,06,26,8.50
2014,09,15,06,27,8.50
2014,09,15,06,28,8.50
2014,09,15,06,29,8.50
2014,09,15,06,30,8.50
2014,09,15,06,31,8.50
2014,09,15,06,32,8.60
2014,09,15,06,33,8.60
2014,09,15,06,34,8.60
2014,09,15,06,35,8.60
2014,09,15,06,36,8.60
2014,09,15,06,37,8.60
2014,09,15,06,38,8.50
2014,09,15,06,39,8.50
2014,09,15,06,40,8.50
2014,09,15,06,41,8.50
2014,09,15,06,42,8.50
2014,09,15,06,43,8.50
2014,09,15,06,44,8.50
2014,09,15,06,45,8.40
2014,09,15,06,46,8.40
2014,09,15,06,47,8.40
2014,09,15,06,48,8.40
2014,09,15,06,49,8.40
2014,09,15,06,50,8.40
2014,09,15,06,51,8.40
2014,09,15,06,52,8.40
2014,09,15,06,53,8.30
2014,09,15,06,54,8.30
2014,09,15,06,55,8.30
2014,09,15,06,56,8.30
2014,09,15,06,57,8.30
2014,09,15,06,58,8.30
2014,09,15,06,59,8.30
2014,09,15,07,00,8.30
2014,09,15,07,01,8.30
2014,09,15,07,02,8.30
2014,09,15,07,03,8.30
2014,09,15,07,04,8.30
2014,09,15,07,05,8.30
2014,09,15,07,06,8.30
2014,09,15,07,07,8.30
2014,09,15,07,08,8.30
2014,09,15,07,09,8.30
2014,09,15,07,10,8.30
2014,09,15,07,11,8.30
2014,09,15,07,12,8.30
2014,09,15,07,13,8.20
2014,09,15,07,14,8.20
2014,09,15,07,15,8.20
2014,09,15,07,16,8.20
2014,09,15,07,17,8.20
2014,09,15,07,18,8.20
2014,09,15,07,19,8.20
2014,09,15,07,20,8.20
2014,09,15,07,21,8.20
2014,09,15,07,22,8.20
2014,09,15,07,23,8.20
2014,09,15,07,24,8.20
2014,09,15,07,25,8.20
2014,09,15,07,26,8.20
2014,09,15,07,27,8.20
2014,09,15,07,28,8.20
2014,09,15,07,29,8.30
2014,09,15,07,30,8.30
2014,09,15,07,31,8.30
2014,09,15,07,32,8.40
2014,09,15,07,33,8.40
2014,09,15,07,34,8.40
2014,09,15,07,35,8.50
2014,09,15,07,36,8.50
2014,09,15,07,37,8.50
2014,09,15,07,38,8.60
2014,09,15,07,39,8.60
2014,09,15,07,40,8.60
2014,09,15,07,41,8.60
2014,09,15,07,42,8.60
2014,09,15,07,43,8.60
2014,09,15,07,44,8.60
2014,09,15,07,45,8.60
2014,09,15,07,46,8.70
2014,09,15,07,47,8.70
2014,09,15,07,48,8.80
2014,09,15,07,49,8.80
2014,09,15,07,50,8.90
2014,09,15,07,51,9.00
2014,09,15,07,52,9.10
2014,09,15,07,53,9.10
2014,09,15,07,54,9.20
2014,09,15,07,55,9.30
2014,09,15,07,56,9.40
2014,09,15,07,57,9.50
2014,09,15,07,58,9.60
2014,09,15,07,59,9.70
2014,09,15,08,00,9.80
2014,09,15,08,01,9.90
2014,09,15,08,02,10.00
2014,09,15,08,03,10.10
2014,09,15,08,04,10.20
2014,09,15,08,05,10.30
2014,09,15,08,06,10.40
2014,09,15,08,07,10.50
2014,09,15,08,08,10.70
2014,09,15,08,09,10.80
2014,09,15,08,10,10.90
2014,09,15,08,11,11.10
2014,09,15,08,12,11.20
2014,09,15,08,13,11.30
2014,09,15,08,14,11.40
2014,09,15,08,15,11.50
2014,09,15,08,16,11.60
2014,09,15,08,17,11.70
2014,09,15,08,18,11.70
2014,09,15,08,19,11.90
2014,09,15,08,20,12.00
2014,09,15,08,21,12.10
2014,09,15,08,22,12.20
2014,09,15,08,23,12.30
2014,09,15,08,24,12.40
2014,09,15,08,25,12.60
2014,09,15,08,26,12.70
2014,09,15,08,27,12.90
2014,09,15,08,28,13.00
2014,09,15,08,29,13.20
2014,09,15,08,30,13.40
2014,09,15,08,31,13.60
2014,09,15,08,32,13.70
2014,09,15,08,33,13.80
2014,09,15,08,34,14.00
2014,09,15,08,35,14.10
2014,09,15,08,36,14.20
2014,09,15,08,37,14.30
2014,09,15,08,38,14.40
2014,09,15,08,39,14.60
2014,09,15,08,40,14.70
2014,09,15,08,41,14.90
2014,09,15,08,42,15.00
2014,09,15,08,43,15.00
2014,09,15,08,44,15.10
2014,09,15,08,45,15.30
2014,09,15,08,46,15.40
2014,09,15,08,47,15.50
2014,09,15,08,48,15.60
2014,09,15,08,49,15.70
2014,09,15,08,50,15.90
2014,09,15,08,51,16.00
2014,09,15,08,52,16.10
2014,09,15,08,53,16.20
2014,09,15,08,54,16.30
2014,09,15,08,55,16.40
2014,09,15,08,56,16.50
2014,09,15,08,57,16.60
2014,09,15,08,58,16.70
2014,09,15,08,59,16.80
2014,09,15,09,00,16.80
2014,09,15,09,01,16.90
2014,09,15,09,02,17.00
2014,09,15,09,03,17.10
2014,09,15,09,04,17.10
2014,09,15,09,05,17.30
2014,09,15,09,06,17.40
2014,09,15,09,07,17.60
2014,09,15,09,08,17.70
2014,09,15,09,09,17.80
2014,09,15,09,10,18.00
2014,09,15,09,11,18.10
2014,09,15,09,12,18.20
2014,09,15,09,13,18.40
2014,09,15,09,14,18.50
2014,09,15,09,15,18.70
2014,09,15,09,16,18.80
2014,09,15,09,17,19.00
2014,09,15,09,18,19.20
2014,09,15,09,19,19.30
2014,09,15,09,20,19.50
2014,09,15,09,21,19.60
2014,09,15,09,22,19.70
2014,09,15,09,23,19.80
2014,09,15,09,24,19.90
2014,09,15,09,25,20.00
2014,09,15,09,26,20.20
2014,09,15,09,27,20.20
2014,09,15,09,28,20.30
2014,09,15,09,29,20.40
2014,09,15,09,30,20.50
2014,09,15,09,31,20.60
2014,09,15,09,32,20.70
2014,09,15,09,33,20.70
2014,09,15,09,34,20.80
2014,09,15,09,35,20.90
2014,09,15,09,36,20.90
2014,09,15,09,37,21.00
2014,09,15,09,38,21.10
2014,09,15,09,39,21.10
2014,09,15,09,40,21.20
2014,09,15,09,41,21.30
2014,09,15,09,42,21.30
2014,09,15,09,43,21.40
2014,09,15,09,44,21.50
2014,09,15,09,45,21.60
2014,09,15,09,46,21.70
2014,09,15,09,47,21.70
2014,09,15,09,48,21.70
2014,09,15,09,49,21.70
2014,09,15,09,50,21.80
2014,09,15,09,51,21.80
2014,09,15,09,52,21.90
2014,09,15,09,53,22.00
2014,09,15,09,54,22.10
2014,09,15,09,55,22.20
2014,09,15,09,56,22.20
2014,09,15,09,57,22.30
2014,09,15,09,58,22.40
2014,09,15,09,59,22.50
2014,09,15,10,00,22.60
2014,09,15,10,01,22.70
2014,09,15,10,02,22.80
2014,09,15,10,03,22.90
2014,09,15,10,04,22.90
2014,09,15,10,05,22.90
2014,09,15,10,06,22.90
2014,09,15,10,07,23.00
2014,09,15,10,08,22.90
2014,09,15,10,09,23.00
2014,09,15,10,10,23.00
2014,09,15,10,11,23.00
2014,09,15,10,12,23.10
2014,09,15,10,13,23.10
2014,09,15,10,14,23.20
2014,09,15,10,15,23.20
2014,09,15,10,16,23.30
2014,09,15,10,17,23.30
2014,09,15,10,18,23.40
2014,09,15,10,19,23.40
2014,09,15,10,20,23.50
2014,09,15,10,21,23.50
2014,09,15,10,22,23.50
2014,09,15,10,23,23.50
2014,09,15,10,24,23.50
2014,09,15,10,25,23.50
2014,09,15,10,26,23.50
2014,09,15,10,27,23.60
2014,09,15,10,28,23.60
2014,09,15,10,29,23.60
2014,09,15,10,30,23.70
2014,09,15,10,31,23.70
2014,09,15,10,32,23.80
2014,09,15,10,33,23.80
2014,09,15,10,34,23.70
2014,09,15,10,35,23.70
2014,09,15,10,36,23.70
2014,09,15,10,37,23.70
2014,09,15,10,38,23.80
2014,09,15,10,39,23.80
2014,09,15,10,40,23.80
2014,09,15,10,41,23.80
2014,09,15,10,42,23.90
2014,09,15,10,43,24.00
2014,09,15,10,44,24.10
2014,09,15,10,45,24.20
2014,09,15,10,46,24.30
2014,09,15,10,47,24.40
2014,09,15,10,48,24.50
2014,09,15,10,49,24.50
2014,09,15,10,50,24.60
2014,09,15,10,51,24.60
2014,09,15,10,52,24.60
2014,09,15,10,53,24.60
2014,09,15,10,54,24.50
2014,09,15,10,55,24.40
2014,09,15,10,56,24.20
2014,09,15,10,57,24.10
2014,09,15,10,58,24.00
2014,09,15,10,59,24.00
2014,09,15,11,00,23.90
2014,09,15,11,01,23.80
2014,09,15,11,02,23.70
2014,09,15,11,03,23.70
2014,09,15,11,04,23.80
2014,09,15,11,05,23.80
2014,09,15,11,06,23.80
2014,09,15,11,07,23.80
2014,09,15,11,08,23.80
2014,09,15,11,09,23.80
2014,09,15,11,10,23.80
2014,09,15,11,11,23.70
2014,09,15,11,12,23.70
2014,09,15,11,13,23.70
2014,09,15,11,14,23.70
2014,09,15,11,15,23.80
2014,09,15,11,16,23.90
2014,09,15,11,17,24.00
2014,09,15,11,18,24.00
2014,09,15,11,19,24.00
2014,09,15,11,20,24.00
2014,09,15,11,21,24.00
2014,09,15,11,22,24.10
2014,09,15,11,23,24.10
2014,09,15,11,24,24.10
2014,09,15,11,25,24.20
2014,09,15,11,26,24.30
2014,09,15,11,27,24.40
2014,09,15,11,28,24.50
2014,09,15,11,29,24.60
2014,09,15,11,30,24.60
2014,09,15,11,31,24.60
2014,09,15,11,32,24.60
2014,09,15,11,33,24.70
2014,09,15,11,34,24.70
2014,09,15,11,35,24.80
2014,09,15,11,36,24.80
2014,09,15,11,37,24.80
2014,09,15,11,38,24.80
2014,09,15,11,39,24.90
2014,09,15,11,40,25.00
2014,09,15,11,41,25.10
2014,09,15,11,42,25.20
2014,09,15,11,43,25.20
2014,09,15,11,44,25.20
2014,09,15,11,45,25.30
2014,09,15,11,46,25.30
2014,09,15,11,47,25.40
2014,09,15,11,48,25.30
2014,09,15,11,49,25.20
2014,09,15,11,50,25.20
2014,09,15,11,51,25.20
2014,09,15,11,52,25.20
2014,09,15,11,53,25.20
2014,09,15,11,54,25.20
2014,09,15,11,55,25.20
2014,09,15,11,56,25.30
2014,09,15,11,57,25.30
2014,09,15,11,58,25.30
2014,09,15,11,59,25.40
2014,09,15,12,00,25.40
2014,09,15,12,01,25.40
2014,09,15,12,02,25.50
2014,09,15,12,03,25.40
2014,09,15,12,04,25.50
2014,09,15,12,05,25.50
2014,09,15,12,06,25.40
2014,09,15,12,07,25.30
2014,09,15,12,08,25.10
2014,09,15,12,09,24.90
2014,09,15,12,10,24.80
2014,09,15,12,11,24.70
2014,09,15,12,12,24.70
2014,09,15,12,13,24.70
2014,09,15,12,14,24.70
2014,09,15,12,15,24.80
2014,09,15,12,16,24.90
2014,09,15,12,17,25.00
2014,09,15,12,18,25.10
2014,09,15,12,19,25.30
2014,09,15,12,20,25.30
2014,09,15,12,21,25.40
2014,09,15,12,22,25.50
2014,09,15,12,23,25.60
2014,09,15,12,24,25.60
2014,09,15,12,25,25.60
2014,09,15,12,26,25.70
2014,09,15,12,27,25.80
2014,09,15,12,28,25.80
2014,09,15,12,29,25.90
2014,09,15,12,30,25.70
2014,09,15,12,31,25.50
2014,09,15,12,32,25.30
2014,09,15,12,33,25.10
2014,09,15,12,34,25.10
2014,09,15,12,35,25.10
2014,09,15,12,36,25.10
2014,09,15,12,37,25.00
2014,09,15,12,38,25.00
2014,09,15,12,39,25.10
2014,09,15,12,40,25.10
2014,09,15,12,41,25.20
2014,09,15,12,42,25.20
2014,09,15,12,43,25.30
2014,09,15,12,44,25.30
2014,09,15,12,45,25.30
2014,09,15,12,46,25.40
2014,09,15,12,47,25.50
2014,09,15,12,48,25.70
2014,09,15,12,49,25.80
2014,09,15,12,50,25.90
2014,09,15,12,51,25.90
2014,09,15,12,52,25.90
2014,09,15,12,53,25.80
2014,09,15,12,54,25.70
2014,09,15,12,55,25.50
2014,09,15,12,56,25.40
2014,09,15,12,57,25.50
2014,09,15,12,58,25.50
2014,09,15,12,59,25.60
2014,09,15,13,00,25.70
2014,09,15,13,01,25.80
2014,09,15,13,02,25.90
2014,09,15,13,03,26.00
2014,09,15,13,04,26.00
2014,09,15,13,05,26.00
2014,09,15,13,06,26.00
2014,09,15,13,07,26.10
2014,09,15,13,08,26.20
2014,09,15,13,09,26.30
2014,09,15,13,10,26.40
2014,09,15,13,11,26.50
2014,09,15,13,12,26.60
2014,09,15,13,13,26.70
2014,09,15,13,14,26.70
2014,09,15,13,15,26.80
2014,09,15,13,16,27.00
2014,09,15,13,17,27.10
2014,09,15,13,18,27.20
2014,09,15,13,19,27.20
2014,09,15,13,20,27.20
2014,09,15,13,21,27.10
2014,09,15,13,22,27.00
2014,09,15,13,23,27.00
2014,09,15,13,24,26.80
2014,09,15,13,25,26.80
2014,09,15,13,26,26.80
2014,09,15,13,27,26.80
2014,09,15,13,28,26.90
2014,09,15,13,29,26.90
2014,09,15,13,30,26.80
2014,09,15,13,31,26.80
2014,09,15,13,32,26.80
2014,09,15,13,33,26.90
2014,09,15,13,34,27.00
2014,09,15,13,35,27.20
2014,09,15,13,36,27.30
2014,09,15,13,37,27.30
2014,09,15,13,38,27.40
2014,09,15,13,39,27.40
2014,09,15,13,40,27.50
2014,09,15,13,41,27.50
2014,09,15,13,42,27.60
2014,09,15,13,43,27.60
2014,09,15,13,44,27.70
2014,09,15,13,45,27.70
2014,09,15,13,46,27.80
2014,09,15,13,47,27.80
2014,09,15,13,48,27.90
2014,09,15,13,49,27.80
2014,09,15,13,50,27.80
2014,09,15,13,51,27.80
2014,09,15,13,52,27.90
2014,09,15,13,53,28.00
2014,09,15,13,54,28.00
2014,09,15,13,55,28.00
2014,09,15,13,56,27.80
2014,09,15,13,57,27.70
2014,09,15,13,58,27.70
2014,09,15,13,59,27.70
2014,09,15,14,00,27.70
2014,09,15,14,01,27.70
2014,09,15,14,02,27.60
2014,09,15,14,03,27.50
2014,09,15,14,04,27.50
2014,09,15,14,05,27.40
2014,09,15,14,06,27.30
2014,09,15,14,07,27.20
2014,09,15,14,08,27.10
2014,09,15,14,09,27.20
2014,09,15,14,10,27.30
2014,09,15,14,11,27.30
2014,09,15,14,12,27.30
2014,09,15,14,13,27.30
2014,09,15,14,14,27.20
2014,09,15,14,15,27.10
2014,09,15,14,16,27.10
2014,09,15,14,17,27.20
2014,09,15,14,18,27.20
2014,09,15,14,19,27.20
2014,09,15,14,20,27.20
2014,09,15,14,21,27.20
2014,09,15,14,22,27.20
2014,09,15,14,23,27.20
2014,09,15,14,24,27.20
2014,09,15,14,25,27.30
2014,09,15,14,26,27.40
2014,09,15,14,27,27.60
2014,09,15,14,28,27.60
2014,09,15,14,29,27.80
2014,09,15,14,30,27.90
2014,09,15,14,31,28.00
2014,09,15,14,32,28.00
2014,09,15,14,33,27.90
2014,09,15,14,34,27.90
2014,09,15,14,35,27.80
2014,09,15,14,36,27.70
2014,09,15,14,37,27.70
2014,09,15,14,38,27.80
2014,09,15,14,39,27.80
2014,09,15,14,40,27.90
2014,09,15,14,41,28.00
2014,09,15,14,42,28.10
2014,09,15,14,43,28.10
2014,09,15,14,44,28.10
2014,09,15,14,45,28.10
2014,09,15,14,46,28.20
2014,09,15,14,47,28.20
2014,09,15,14,48,28.10
2014,09,15,14,49,28.10
2014,09,15,14,50,28.20
2014,09,15,14,51,28.20
2014,09,15,14,52,28.20
2014,09,15,14,53,28.20
2014,09,15,14,54,28.20
2014,09,15,14,55,28.10
2014,09,15,14,56,28.10
2014,09,15,14,57,28.00
2014,09,15,14,58,28.00
2014,09,15,14,59,28.00
2014,09,15,15,00,28.10
2014,09,15,15,01,28.20
2014,09,15,15,02,28.30
2014,09,15,15,03,28.40
2014,09,15,15,04,28.50
2014,09,15,15,05,28.60
2014,09,15,15,06,28.60
2014,09,15,15,07,28.60
2014,09,15,15,08,28.50
2014,09,15,15,09,28.50
2014,09,15,15,10,28.50
2014,09,15,15,11,28.60
2014,09,15,15,12,28.60
2014,09,15,15,13,28.60
2014,09,15,15,14,28.70
2014,09,15,15,15,28.70
2014,09,15,15,16,28.60
2014,09,15,15,17,28.60
2014,09,15,15,18,28.50
2014,09,15,15,19,28.50
2014,09,15,15,20,28.40
2014,09,15,15,21,28.50
2014,09,15,15,22,28.50
2014,09,15,15,23,28.50
2014,09,15,15,24,28.40
2014,09,15,15,25,28.30
2014,09,15,15,26,28.10
2014,09,15,15,27,27.90
2014,09,15,15,28,27.80
2014,09,15,15,29,27.70
2014,09,15,15,30,27.70
2014,09,15,15,31,27.80
2014,09,15,15,32,27.90
2014,09,15,15,33,28.00
2014,09,15,15,34,28.10
2014,09,15,15,35,28.20
2014,09,15,15,36,28.20
2014,09,15,15,37,28.30
2014,09,15,15,38,28.30
2014,09,15,15,39,28.30
2014,09,15,15,40,28.30
2014,09,15,15,41,28.40
2014,09,15,15,42,28.50
2014,09,15,15,43,28.60
2014,09,15,15,44,28.50
2014,09,15,15,45,28.40
2014,09,15,15,46,28.40
2014,09,15,15,47,28.40
2014,09,15,15,48,28.40
2014,09,15,15,49,28.40
2014,09,15,15,50,28.40
2014,09,15,15,51,28.50
2014,09,15,15,52,28.50
2014,09,15,15,53,28.60
2014,09,15,15,54,28.60
2014,09,15,15,55,28.60
2014,09,15,15,56,28.60
2014,09,15,15,57,28.70
2014,09,15,15,58,28.80
2014,09,15,15,59,28.80
2014,09,15,16,00,28.90
2014,09,15,16,01,28.90
2014,09,15,16,02,29.00
2014,09,15,16,03,29.10
2014,09,15,16,04,29.10
2014,09,15,16,05,29.00
2014,09,15,16,06,28.80
2014,09,15,16,07,28.70
2014,09,15,16,08,28.60
2014,09,15,16,09,28.50
2014,09,15,16,10,28.30
2014,09,15,16,11,28.20
2014,09,15,16,12,28.10
2014,09,15,16,13,28.00
2014,09,15,16,14,27.90
2014,09,15,16,15,27.80
2014,09,15,16,16,27.80
2014,09,15,16,17,27.80
2014,09,15,16,18,27.80
2014,09,15,16,19,27.90
2014,09,15,16,20,27.90
2014,09,15,16,21,27.80
2014,09,15,16,22,27.70
2014,09,15,16,23,27.70
2014,09,15,16,24,27.70
2014,09,15,16,25,27.70
2014,09,15,16,26,27.70
2014,09,15,16,27,27.80
2014,09,15,16,28,27.80
2014,09,15,16,29,27.80
2014,09,15,16,30,27.80
2014,09,15,16,31,27.80
2014,09,15,16,32,27.80
2014,09,15,16,33,27.90
2014,09,15,16,34,27.90
2014,09,15,16,35,27.90
2014,09,15,16,36,28.00
2014,09,15,16,37,28.00
2014,09,15,16,38,28.00
2014,09,15,16,39,27.90
2014,09,15,16,40,27.90
2014,09,15,16,41,27.90
2014,09,15,16,42,27.80
2014,09,15,16,43,27.70
2014,09,15,16,44,27.70
2014,09,15,16,45,27.80
2014,09,15,16,46,27.80
2014,09,15,16,47,27.90
2014,09,15,16,48,28.00
2014,09,15,16,49,28.00
2014,09,15,16,50,27.90
2014,09,15,16,51,28.00
2014,09,15,16,52,28.00
2014,09,15,16,53,27.90
2014,09,15,16,54,27.90
2014,09,15,16,55,27.90
2014,09,15,16,56,28.00
2014,09,15,16,57,28.00
2014,09,15,16,58,28.00
2014,09,15,16,59,28.00
2014,09,15,17,00,28.00
2014,09,15,17,01,28.00
2014,09,15,17,02,28.00
2014,09,15,17,03,28.00
2014,09,15,17,04,28.00
2014,09,15,17,05,28.00
2014,09,15,17,06,28.00
2014,09,15,17,07,28.00
2014,09,15,17,08,28.00
2014,09,15,17,09,28.00
2014,09,15,17,10,28.00
2014,09,15,17,11,28.00
2014,09,15,17,12,28.00
2014,09,15,17,13,28.00
2014,09,15,17,14,27.90
2014,09,15,17,15,27.90
2014,09,15,17,16,27.80
2014,09,15,17,17,27.80
2014,09,15,17,18,27.80
2014,09,15,17,19,27.80
2014,09,15,17,20,27.70
2014,09,15,17,21,27.70
2014,09,15,17,22,27.70
2014,09,15,17,23,27.70
2014,09,15,17,24,27.70
2014,09,15,17,25,27.80
2014,09,15,17,26,27.70
2014,09,15,17,27,27.70
2014,09,15,17,28,27.60
2014,09,15,17,29,27.50
2014,09,15,17,30,27.50
2014,09,15,17,31,27.50
2014,09,15,17,32,27.50
2014,09,15,17,33,27.50
2014,09,15,17,34,27.50
2014,09,15,17,35,27.50